Temperature
17 17 17 16 16 16 16 16 16 15 16 16 16 16 16 15 15 15 15 15 15 15 15 15 14 14 14 14 14 14 14 14 13 13 13 13 13 13
16 16 16 16 16 16 16 16 16 16 15 15 15 15 15 15 15 15 15 14 14 14 14 14 14 14 14 14 14 13 13 13 13 13 13 13 13 12
16 16 16 16 16 16 16 16 15 15 15 15 15 15 15 14 14 14 14 14 14 14 14 14 14 14 13 13 13 13 13 13 12 12 12 12 12 12
16 16 16 15 16 16 16 15 15 15 15 15 14 14 14 14 14 14 13 13 13 13 13 13 13 13 13 13 13 13 12 12 12 12 12 11 11 11
15 15 15 15 15 15 15 15 15 15 15 14 14 14 14 14 13 13 13 13 13 13 13 13 13 13 12 12 12 12 12 12 11 11 11 11 11 11
15 15 15 15 15 15 15 15 14 14 14 14 14 14 13 13 13 13 12 12 12 12 12 12 12 12 12 12 11 11 11 11 11 11 10 10 10 10
15 15 15 15 14 14 14 14 14 14 14 13 13 13 13 13 13 12 12 12 12 12 12 11 11 11 11 11 11 11 11 10 10 10 10 10 10 9
14 14 14 14 14 14 14 14 14 14 13 13 13 13 13 13 13 12 12 12 11 11 11 11 11 11 11 11 11 10 10 10 10 10 10 9 9 9
14 14 14 14 14 14 14 13 13 13 13 13 13 13 13 12 12 12 12 12 12 11 11 11 11 10 10 10 10 10 10 10 10 9 9 9 9 9
14 14 14 13 13 13 13 13 13 13 13 13 13 13 12 12 12 12 12 12 12 11 11 11 11 10 10 10 10 10 10 10 9 9 9 9 9 9
13 13 13 13 13 13 13 13 12 12 12 12 12 12 12 12 12 12 11 11 11 11 11 11 10 10 10 10 10 10 10 10 9 9 9 9 8 8
13 13 13 13 13 13 12 12 12 12 12 12 12 12 12 11 11 11 11 11 11 11 10 10 10 10 10 10 10 10 9 9 9 9 9 8 8 8
13 13 13 12 12 12 12 12 12 12 12 12 11 11 11 11 11 11 11 11 11 10 10 10 10 10 10 9 9 9 9 9 9 9 8 8 8 8
12 12 12 12 12 12 12 12 12 11 11 11 11 11 11 11 11 11 11 10 10 10 10 10 10 10 9 9 9 9 9 9 9 8 8 8 8 8
12 12 12 12 12 11 11 11 11 11 11 11 11 11 11 11 10 10 10 10 10 10 10 10 9 9 9 9 9 9 9 9 8 8 8 8 8 8
12 12 12 12 11 11 11 11 11 11 11 10 11 10 10 10 10 10 10 10 10 10 9 9 9 9 9 9 9 9 9 8 8 8 8 8 8 8
12 11 11 11 11 11 11 10 10 10 10 10 10 10 10 10 10 10 10 9 9 9 9 9 9 9 9 9 9 8 8 8 8 8 8 8 8 7
11 11 11 11 11 11 10 10 10 10 10 10 10 10 10 10 10 10 9 9 9 9 9 9 9 8 8 8 8 8 8 8 8 8 8 7 7 7
11 11 11 10 10 10 10 10 10 10 10 10 10 10 9 10 9 9 9 9 9 9 9 9 8 8 8 8 8 8 8 8 8 7 7 7 7 7
11 10 10 10 10 10 10 9 9 9 9 9 9 9 9 9 9 9 9 9 9 9 9 8 8 8 8 8 8 8 8 8 7 7 7 7 7 7
10 10 10 10 10 9 9 9 9 9 9 9 9 9 8 8 9 9 9 9 9 8 8 8 8 8 8 8 8 8 8 8 7 7 7 7 7 7
10 10 10 9 9 9 9 9 8 8 8 8 8 8 8 8 8 8 8 8 8 8 8 8 8 8 8 8 8 8 8 7 7 7 7 7 7 7
10 10 9 9 9 9 8 8 8 8 8 8 8 8 8 8 8 8 8 8 8 8 8 8 7 7 7 8 8 8 8 7 7 7 7 7 7 7
Wind_Speed
2 2 2 2 2 1 2 2 2 2 3 2 1 2 3 5 7 5 5 5 6 6 6 5 4 3 3 3 3 3 2 2 2 2 2 2 2 2
1 1 1 1 2 1 1 1 1 2 2 1 1 1 3 4 6 5 6 8 7 7 7 6 5 5 4 4 4 4 3 3 3 4 4 4 3 3
2 2 2 2 2 2 1 1 1 2 2 1 1 1 2 3 4 4 6 6 5 7 7 7 6 6 5 5 5 5 5 5 5 5 5 5 5 5
3 3 3 3 2 2 2 1 1 1 2 3 2 1 2 2 3 3 4 5 5 6 8 7 7 7 7 7 7 6 6 6 6 6 5 5 5 5
3 3 3 3 3 3 2 1 1 1 1 2 2 1 1 2 2 2 3 3 4 7 8 8 8 9 9 9 9 8 8 7 7 6 6 5 5 6
4 4 4 4 3 3 2 2 1 0 1 1 2 2 2 2 2 2 2 2 2 5 6 7 7 8 8 8 8 8 7 7 7 6 6 6 5 5
3 4 4 5 6 4 3 3 2 1 0 0 1 1 1 2 2 2 2 2 2 2 3 4 5 5 5 6 6 6 7 6 6 6 6 5 5 4
3 3 3 4 6 6 5 5 3 1 1 1 1 1 1 1 1 2 2 2 2 2 3 3 5 4 5 6 7 8 7 6 6 6 6 5 5 4
3 2 2 3 4 3 3 3 3 3 2 1 1 0 0 1 2 2 2 2 2 3 3 2 3 3 5 8 11 11 9 8 7 6 6 6 5 5
3 3 3 3 4 4 1 2 3 3 2 1 1 1 1 1 1 2 2 2 1 1 2 2 2 2 3 7 12 12 12 11 10 9 8 7 6 6
3 4 3 3 6 6 2 2 2 2 4 5 4 3 3 2 2 1 1 1 1 1 1 0 1 2 2 3 9 13 13 12 12 11 10 9 8 7
3 3 5 5 5 5 2 1 1 2 1 2 2 2 1 1 1 1 1 0 0 1 1 0 0 1 1 2 4 9 10 11 13 12 12 11 10 7
2 2 3 4 4 4 3 2 2 2 1 1 1 1 1 1 1 1 1 0 0 0 1 1 0 0 1 1 2 5 8 7 9 11 13 14 13 10
2 2 2 2 3 3 2 3 4 3 1 1 1 1 1 1 0 0 0 1 1 1 1 1 0 0 1 1 1 2 4 6 7 7 9 12 13 14
2 2 0 2 2 1 1 2 2 2 1 1 0 0 0 1 1 1 1 1 1 0 1 1 0 1 1 1 1 1 2 3 4 4 5 6 7 7
1 1 2 3 2 1 1 1 1 1 2 2 1 0 0 0 0 0 0 0 1 1 0 1 2 1 2 2 1 2 1 2 2 3 3 4 7 9
1 1 1 1 0 0 0 0 0 1 1 2 2 2 1 0 0 0 0 1 1 1 1 1 2 3 3 2 2 2 2 2 2 1 2 3 3 5
1 1 0 1 1 1 1 1 1 2 2 2 1 2 1 1 1 1 1 1 1 1 1 1 1 1 2 2 2 2 2 2 2 2 3 3 4 4
1 1 1 1 2 1 1 1 1 1 2 2 2 2 2 2 1 1 1 1 2 2 2 2 1 1 3 4 3 4 3 2 2 2 2 3 4 3
0 1 1 1 2 2 3 3 2 2 2 3 3 3 3 3 2 2 2 2 2 3 2 1 1 2 3 4 3 3 5 3 2 2 3 3 2 2
0 1 1 2 2 2 3 2 2 2 2 2 2 3 3 3 3 3 2 2 2 2 2 2 3 4 3 2 3 3 3 6 6 4 3 3 3 3
1 1 2 2 2 2 2 2 2 2 2 2 3 3 3 3 3 3 3 3 2 2 3 2 2 2 3 4 4 4 3 3 6 10 9 7 3 3
1 1 1 1 1 1 1 2 2 2 2 2 3 3 4 4 4 3 2 3 3 2 2 2 2 3 3 3 4 3 4 3 3 3 4 10 13 13
Wind_Direction
288 284 275 283 280 260 229 215 219 245 258 234 185 149 126 115 126 130 124 147 151 148 145 146 144 143 143 137 129 126 130 141 145 139 129 140 155 168
297 315 306 305 317 322 267 256 234 219 245 284 209 157 138 123 127 125 128 135 135 139 137 137 136 140 137 128 121 120 117 116 110 109 112 114 113 116
349 357 340 321 321 310 300 264 213 191 216 246 201 142 145 136 131 134 130 127 131 144 141 135 128 122 118 119 117 114 111 111 111 110 111 109 110 114
10 17 1 356 358 341 337 313 254 214 202 212 212 179 161 147 148 160 139 136 132 140 140 129 122 118 117 118 116 112 107 106 107 108 108 110 117 116
25 28 18 16 8 358 355 342 316 279 196 193 203 165 154 152 145 151 131 134 134 129 130 126 128 127 123 120 118 113 111 109 107 107 108 108 113 117
35 36 33 25 13 3 5 9 2 327 239 215 189 155 134 143 146 160 154 157 130 127 125 127 130 131 130 128 127 126 124 120 115 112 111 110 111 115
46 48 51 45 38 31 24 17 11 18 310 240 143 123 124 138 181 191 169 139 111 123 135 140 140 142 147 150 149 147 144 141 139 138 134 130 128 129
59 47 62 55 44 50 46 38 34 32 48 70 98 117 147 167 184 159 155 152 166 169 168 174 164 165 170 168 170 168 167 169 167 163 160 158 155 153
55 42 37 41 39 31 42 50 40 27 40 74 68 333 200 190 174 179 176 177 183 174 174 182 172 173 175 174 175 179 185 185 181 180 181 182 183 182
57 47 50 40 23 10 24 60 54 37 34 65 74 31 28 34 189 199 193 160 138 149 155 172 180 184 173 168 182 187 191 192 194 197 198 200 201 202
79 56 47 42 13 10 27 51 54 46 54 62 83 97 69 42 29 77 115 124 127 140 121 189 189 169 161 170 188 194 195 199 205 207 209 211 211 214
99 85 59 45 17 18 18 22 18 359 43 56 60 71 75 74 83 83 69 69 62 103 145 175 218 143 174 181 181 191 201 210 214 218 222 224 220 216
91 90 65 31 15 5 3 6 330 315 290 225 150 115 93 64 76 100 74 348 46 3 126 138 274 300 212 207 193 191 194 201 206 218 225 229 229 221
54 73 74 26 350 339 351 342 336 330 329 24 58 59 64 70 352 202 126 29 60 103 113 102 329 286 290 274 247 200 201 202 201 203 208 217 226 233
43 60 303 274 279 264 310 355 4 13 354 357 47 41 202 232 228 196 140 111 45 45 110 107 146 322 292 288 288 242 224 220 207 207 208 203 208 211
45 283 245 255 279 323 357 4 33 359 329 329 328 268 193 167 119 97 156 191 231 253 201 218 216 223 269 282 264 268 258 232 221 218 219 218 214 213
315 239 218 191 198 213 112 16 5 3 327 328 342 345 354 4 290 170 221 271 253 241 246 246 225 232 238 248 258 255 254 269 261 227 232 242 235 222
305 284 344 22 11 355 334 350 12 1 339 328 342 335 318 299 272 268 282 294 299 282 264 251 266 282 284 275 247 261 263 262 257 241 244 237 244 244
291 328 24 24 10 355 356 4 8 11 346 334 332 325 317 310 307 296 293 287 282 276 264 241 221 248 276 283 267 245 249 259 267 257 254 254 253 249
268 10 29 24 22 12 11 7 7 15 4 336 337 332 323 316 312 293 268 261 272 274 267 250 243 252 255 267 270 264 239 230 244 254 262 265 263 229
23 37 42 38 31 19 14 3 356 1 354 333 340 327 320 317 312 304 299 288 276 275 276 262 247 249 253 256 269 261 242 230 224 224 239 256 265 259
39 43 54 50 44 29 6 340 330 342 346 336 330 315 313 313 306 300 305 301 288 287 288 282 255 254 256 259 270 268 254 238 241 239 232 229 232 246
97 76 77 75 61 32 345 320 318 337 345 334 325 323 327 322 313 305 301 304 305 306 309 311 306 286 277 275 280 281 273 264 252 247 248 240 240 246
Height
1530 1530 1530 1530 1530 1530 1530 1531 1532 1531 1532 1532 1532 1532 1532 1532 1532 1533 1533 1533 1533 1533 1533 1533 1533 1533 1533 1533 1533 1533 1533 1534 1534 1535 1535 1535 1536 1537
1528 1528 1528 1527 1527 1527 1527 1527 1528 1528 1529 1530 1530 1530 1530 1530 1530 1530 1531 1531 1531 1531 1531 1531 1531 1531 1531 1531 1531 1531 1531 1531 1531 1532 1532 1532 1533 1533
1527 1526 1526 1526 1525 1524 1524 1524 1524 1525 1525 1526 1527 1528 1528 1528 1528 1528 1528 1528 1529 1528 1529 1529 1529 1529 1529 1528 1528 1528 1528 1528 1528 1529 1529 1530 1530 1531
1525 1525 1524 1524 1523 1523 1522 1522 1522 1522 1523 1523 1525 1525 1525 1526 1526 1526 1527 1526 1527 1527 1526 1527 1527 1527 1526 1526 1526 1526 1526 1526 1526 1526 1527 1527 1528 1528
1524 1523 1523 1522 1522 1521 1520 1520 1520 1520 1520 1521 1522 1523 1523 1524 1524 1524 1524 1524 1524 1525 1525 1525 1525 1525 1525 1524 1524 1525 1525 1525 1525 1525 1525 1525 1525 1526
1523 1522 1522 1521 1520 1519 1519 1518 1518 1518 1518 1519 1520 1521 1521 1521 1522 1522 1522 1522 1523 1523 1523 1523 1524 1524 1524 1523 1523 1524 1524 1524 1524 1523 1524 1524 1524 1524
1521 1521 1521 1520 1519 1519 1518 1517 1516 1516 1517 1518 1518 1519 1519 1519 1520 1520 1521 1521 1521 1522 1522 1522 1522 1522 1522 1522 1523 1523 1522 1522 1522 1522 1522 1522 1522 1522
1520 1520 1520 1519 1518 1518 1517 1516 1516 1516 1516 1516 1517 1517 1518 1518 1518 1519 1519 1519 1520 1521 1520 1520 1520 1521 1521 1521 1521 1521 1521 1521 1521 1521 1520 1520 1520 1520
1519 1519 1519 1518 1518 1517 1516 1516 1516 1516 1516 1516 1516 1516 1517 1517 1517 1517 1517 1517 1518 1518 1519 1519 1519 1519 1520 1520 1520 1520 1520 1520 1519 1519 1519 1519 1519 1519
1519 1518 1518 1517 1517 1516 1516 1515 1515 1515 1515 1515 1515 1515 1516 1516 1516 1517 1516 1517 1517 1517 1518 1518 1518 1518 1519 1519 1519 1519 1519 1518 1518 1518 1518 1517 1517 1517
1518 1518 1517 1516 1516 1516 1515 1515 1515 1514 1514 1514 1514 1515 1515 1515 1515 1515 1515 1515 1515 1516 1516 1517 1517 1517 1517 1517 1517 1517 1517 1517 1516 1516 1516 1516 1515 1515
1517 1517 1516 1516 1515 1515 1515 1514 1514 1514 1514 1514 1514 1514 1514 1514 1514 1514 1514 1514 1514 1515 1515 1515 1515 1515 1515 1515 1515 1515 1515 1515 1515 1514 1514 1514 1513 1513
1517 1516 1516 1516 1515 1515 1514 1514 1513 1514 1513 1513 1513 1513 1513 1513 1513 1513 1513 1513 1513 1513 1513 1513 1513 1513 1513 1513 1513 1513 1513 1513 1512 1512 1512 1512 1511 1511
1516 1516 1516 1515 1515 1514 1514 1514 1513 1513 1513 1513 1513 1513 1512 1512 1512 1512 1512 1512 1512 1512 1511 1511 1511 1511 1511 1511 1511 1511 1511 1510 1510 1510 1509 1509 1509 1508
1516 1516 1515 1515 1514 1514 1514 1513 1513 1512 1512 1512 1512 1512 1512 1512 1511 1511 1511 1511 1511 1511 1510 1510 1509 1509 1509 1509 1508 1508 1508 1508 1507 1507 1507 1506 1505 1505
1515 1515 1515 1514 1514 1513 1513 1512 1512 1512 1511 1511 1511 1511 1511 1511 1510 1510 1509 1509 1509 1509 1508 1508 1507 1507 1506 1506 1506 1506 1505 1505 1505 1504 1503 1503 1503 1502
1514 1514 1514 1513 1513 1512 1512 1512 1511 1511 1510 1510 1510 1510 1509 1509 1509 1509 1508 1507 1507 1506 1506 1506 1505 1505 1504 1504 1503 1503 1502 1502 1502 1501 1501 1500 1499 1499
1513 1513 1513 1513 1512 1512 1511 1511 1510 1510 1509 1509 1508 1508 1508 1507 1507 1507 1506 1506 1505 1505 1504 1503 1503 1502 1502 1501 1502 1500 1499 1499 1499 1498 1498 1497 1496 1496
1512 1512 1512 1512 1511 1511 1510 1510 1509 1508 1508 1508 1507 1506 1506 1505 1505 1504 1504 1503 1503 1502 1501 1501 1500 1499 1499 1498 1497 1497 1497 1496 1496 1495 1495 1494 1493 1492
1511 1511 1511 1510 1510 1509 1509 1508 1507 1507 1506 1506 1505 1504 1504 1503 1502 1502 1501 1501 1500 1500 1499 1498 1497 1497 1496 1496 1495 1494 1494 1493 1493 1492 1491 1491 1490 1489
1509 1509 1509 1509 1508 1507 1507 1506 1506 1505 1504 1503 1503 1502 1502 1501 1500 1500 1499 1498 1498 1497 1496 1495 1495 1494 1493 1493 1492 1491 1491 1490 1490 1489 1488 1487 1486 1486
1508 1508 1507 1507 1506 1505 1505 1504 1504 1503 1502 1502 1501 1500 1499 1499 1498 1497 1497 1496 1495 1494 1494 1493 1492 1491 1491 1490 1489 1488 1487 1487 1486 1486 1485 1485 1483 1482
1506 1506 1506 1505 1504 1504 1503 1502 1502 1501 1500 1499 1499 1498 1497 1496 1496 1495 1494 1494 1493 1492 1491 1490 1489 1488 1488 1487 1486 1485 1484 1484 1483 1482 1481 1480 1480 1479